[[{"header":{"parameterUnit":"m.s-1","parameterCategory":1,"la1":30.2992,"la2":30.254,"lo1":-89.0895,"lo2":-89.0443,"dy":0.0025,"dx":0.0025,"nx":19,"ny":19,"refTime":"2026-04-23T03:00:00:Z","depth":0,"parameterNumber":2,"parameterNumberName":"U-component_of_WINDS"},"data":[0,0,0,-3.6453,-3.6453,-3.645,-3.645,-3.6452,-3.6452,0,0,0,0,0,0,0,0,0,0,0,-3.6459,-3.6459,-3.6453,-3.6453,-3.645,-3.645,-3.6452,-3.6452,0,0,0,0,0,0,0,0,0,0,0,-3.6458,-3.6459,-3.6459,-3.6453,-3.645,-3.645,-3.6452,-3.6452,0,0,0,0,0,0,0,0,0,0,-3.6454,-3.6464,-3.6459,-3.6459,-3.6453,-3.645,-3.645,-3.6452,-3.6452,-3.6457,0,-3.6463,0,-3.6458,-3.6453,-3.6453,0,0,0,-3.6449,-3.6464,-3.6459,-3.6459,-3.6453,-3.645,-3.645,-3.6452,-3.6452,-3.6457,-3.6463,-3.6463,-3.6458,-3.6453,-3.6453,-3.6495,-3.6495,0,0,-3.645,-3.646,-3.6459,-3.6459,-3.6461,-3.645,-3.645,-3.6452,-3.6458,-3.6463,-3.6463,-3.6458,-3.6453,-3.6453,-3.6494,-3.6495,0,0,0,-3.6453,-3.646,-3.6455,-3.6459,-3.6458,-3.645,-3.645,-3.6458,-3.6456,-3.6463,-3.6458,-3.6453,-3.6453,-3.6494,-3.6494,-3.6522,0,0,0,-3.6453,-3.6462,-3.6456,-3.6462,-3.6458,-3.6458,-3.6457,-3.6456,-3.6456,-3.6458,-3.6453,-3.6453,-3.6493,-3.6494,-3.652,-3.6531,0,0,0,-3.6457,-3.6462,-3.6464,-3.6462,-3.6462,-3.6458,-3.6456,-3.6456,-3.6453,-3.6453,-3.6453,-3.6493,-3.6494,-3.6518,-3.6529,-3.6544,0,0,0,-3.6465,-3.6488,-3.6464,-3.6488,-3.6462,-3.6476,-3.6455,-3.6465,-3.6469,-3.6453,-3.6493,-3.6494,-3.6518,-3.6528,-3.6543,-3.6557,-3.6565,0,0,-3.6499,-3.6492,-3.6505,-3.6485,-3.6506,-3.6476,-3.6501,-3.6493,-3.6484,-3.6492,-3.6492,-3.652,-3.6529,-3.6544,-3.6609,-3.6615,0,0,0,-3.652,-3.6529,-3.6533,-3.6537,-3.6534,-3.6531,-3.652,-3.6517,-3.6524,-3.649,-3.6531,-3.6536,-3.6544,-3.655,-3.6556,-3.6561,-3.6499,-3.6498,-3.6498,-3.658,-3.6569,-3.659,-3.6578,-3.6583,-3.6572,-3.6575,-3.657,-3.6555,-3.6565,-3.6566,-3.6607,-3.6615,-3.6619,-3.6625,-3.6575,-3.6575,-3.6576,-3.6576,-3.6628,-3.6638,-3.6622,-3.6635,-3.6623,-3.6635,-3.6626,-3.6616,-3.6625,-3.6605,-3.6612,-3.6589,-3.6626,-3.6631,-3.6578,-3.6577,-3.6577,-3.6577,-3.6577,-3.6663,-3.6666,-3.6665,-3.6671,-3.6678,-3.6666,-3.6675,-3.6664,-3.6653,-3.666,-3.6659,-3.6659,-3.6655,-3.6662,-3.6662,-3.6662,-3.6662,-3.6662,-3.6662,-3.67,-3.6697,-3.6707,-3.6707,-3.6709,-3.6711,-3.6703,-3.6704,-3.6703,-3.6694,-3.6694,-3.6677,-3.6633,-3.6621,-3.6664,-3.6664,-3.6664,-3.6663,-3.6663,-3.6746,-3.6735,-3.6749,-3.6752,-3.6752,-3.6759,-3.6746,-3.6751,-3.6751,-3.6756,-3.674,-3.671,-3.6701,-3.6697,-3.6686,-3.6744,-3.6744,-3.6744,-3.6744,-3.6774,-3.6771,-3.6783,-3.6788,-3.6791,-3.6782,-3.6799,-3.6794,-3.6786,-3.6786,-3.6777,-3.6763,-3.6759,-3.6752,-3.6747,-3.6736,-3.6806,-3.6806,-3.6806,-3.6802,-3.6798,-3.6813,-3.6807,-3.6808,-3.6808,-3.6823,-3.6828,-3.6818,-3.6808,-3.6784,-3.6782,-3.6759,-3.6753,-3.6738,-3.673,-3.671,0,0]},{"header":{"parameterUnit":"m.s-1","parameterCategory":1,"la1":30.2992,"la2":30.254,"lo1":-89.0895,"lo2":-89.0443,"dy":0.0025,"dx":0.0025,"nx":19,"ny":19,"refTime":"2026-04-23T03:00:00:Z","depth":0,"parameterNumber":3,"parameterNumberName":"V-component_of_WINDS"},"data":[0,0,0,3.6059,3.6059,3.6037,3.6037,3.599,3.599,0,0,0,0,0,0,0,0,0,0,0,3.6055,3.6055,3.6059,3.6059,3.6037,3.6037,3.599,3.599,0,0,0,0,0,0,0,0,0,0,0,3.6056,3.6055,3.6054,3.6059,3.6037,3.6037,3.5991,3.6013,0,0,0,0,0,0,0,0,0,0,3.6037,3.6024,3.6055,3.6054,3.6058,3.6037,3.6037,3.6015,3.6012,3.5992,0,3.5974,0,3.5981,3.5986,3.5985,0,0,0,3.6066,3.6026,3.603,3.6054,3.6058,3.6037,3.6049,3.6013,3.601,3.5989,3.5973,3.5972,3.598,3.5985,3.5985,3.5854,3.5853,0,0,3.6067,3.6045,3.6032,3.6027,3.6031,3.6049,3.6048,3.6012,3.5993,3.5973,3.5971,3.598,3.5985,3.5984,3.5855,3.5853,0,0,0,3.6066,3.6046,3.6051,3.6029,3.6027,3.6049,3.6047,3.5994,3.5998,3.5971,3.5979,3.5984,3.5984,3.5856,3.5854,3.5787,0,0,0,3.6067,3.6045,3.6051,3.6038,3.6027,3.601,3.603,3.6,3.5997,3.5979,3.5984,3.5983,3.5857,3.5855,3.5792,3.5759,0,0,0,3.606,3.6044,3.6038,3.6036,3.6027,3.6012,3.6013,3.6,3.6002,3.5985,3.5983,3.5857,3.5855,3.5795,3.5765,3.5719,0,0,0,3.6046,3.5977,3.6037,3.5962,3.6027,3.5971,3.6014,3.5973,3.5951,3.5984,3.5857,3.5854,3.5796,3.5769,3.5722,3.5675,3.5654,0,0,3.5946,3.5964,3.5922,3.5975,3.5904,3.5976,3.5894,3.5893,3.591,3.5871,3.5868,3.579,3.5765,3.5719,3.5543,3.5526,0,0,0,3.5883,3.5852,3.5838,3.5818,3.5818,3.5814,3.5829,3.5829,3.5798,3.5887,3.5762,3.5748,3.5722,3.57,3.5686,3.5665,3.5844,3.5844,3.5844,3.5708,3.5737,3.567,3.5696,3.5676,3.5693,3.5679,3.5682,3.5714,3.5685,3.5673,3.5563,3.5537,3.5526,3.5504,3.5651,3.5651,3.565,3.565,3.5564,3.5526,3.5574,3.5526,3.5557,3.5516,3.5531,3.5556,3.5522,3.5573,3.5552,3.5604,3.5506,3.5489,3.5645,3.5646,3.5647,3.5647,3.5648,3.5452,3.5439,3.5443,3.5418,3.5396,3.5425,3.5391,3.542,3.5446,3.5424,3.5415,3.5417,3.5421,3.5419,3.5418,3.5418,3.5417,3.5417,3.5417,3.5335,3.5341,3.531,3.5307,3.5299,3.5292,3.5311,3.5303,3.5301,3.5325,3.5325,3.536,3.5492,3.5524,3.5411,3.5412,3.5413,3.5413,3.5414,3.5177,3.5218,3.517,3.5162,3.5162,3.5138,3.5176,3.5159,3.5157,3.5139,3.5181,3.5274,3.5293,3.5304,3.5331,3.5175,3.5175,3.5175,3.5175,3.5082,3.5096,3.5055,3.5041,3.5031,3.5061,3.5006,3.5021,3.5042,3.5043,3.507,3.5108,3.5119,3.5132,3.5147,3.5173,3.4979,3.4979,3.4979,3.4987,3.5001,3.4949,3.4973,3.4975,3.4976,3.4926,3.4907,3.4939,3.4972,3.5044,3.5052,3.5114,3.5133,3.5165,3.5188,3.5236,0,0]}]]